Date String (YYYY-MM-DD hh:mm:ss) UTC,Instrument flags,absolute air pressure of the measurement (hPa),sample flow rate (lpm),inlet stack bypass flow (lpm),air temperature of the measurement (°C),ambient temperature measured by the external sensor (°C),aerosol sample conditioner tube jacket temperature (°C),OPC LED temperature (°C),internal box temperature (°C),relative humidity of the measurement (%),span deviation,mass concentration of particles derived from Lorenz-Mie calculation of OPC scattering (μg/m³),mass concentration of particles derived from Lorenz-Mie calculation of OPC scattering (μg/m³),mass concentration of particles derived from Lorenz-Mie calculation of OPC scattering (μg/m³)
DateTimeUTC,F1_M11,P_M11,Q1_M11,Q2_M11,T1_M11,T2_M11,T3_M11,T4_M11,T5_M11,U1_M11,ZSPAN_M11,X2_M11,X0_M11,X1_M11
2023-08-27 21:00:00,SystemResetWarning,0834.0,5.01,000.00,031.6,024.5,000.0,038.5,030.0,33.8,0000.0,0005.01,0008.14,0004.77
2023-08-27 21:01:00,SystemResetWarning,0834.0,4.99,000.00,031.5,024.9,000.0,038.6,030.1,35.0,0000.0,0004.92,0008.02,0004.69
2023-08-27 21:02:00,SystemResetWarning,0834.0,5.01,000.00,031.5,025.4,000.0,038.7,030.3,34.8,0000.0,0004.83,0007.86,0004.61
2023-08-27 21:03:00,SystemResetWarning,0834.0,4.98,000.00,031.5,025.8,000.0,038.8,030.4,35.4,-002.0,0004.79,0007.81,0004.58
2023-08-27 21:04:00,SystemResetWarning,0834.0,5.03,000.00,031.7,026.2,000.0,038.8,030.6,33.8,-000.7,0004.80,0007.88,0004.57
2023-08-27 21:05:00,SystemResetWarning,0834.1,4.96,000.00,031.8,026.5,000.0,038.9,030.7,33.3,-000.5,0004.81,0007.93,0004.58
2023-08-27 21:06:00,SystemResetWarning,0834.1,5.02,000.00,031.9,026.6,000.0,038.9,030.8,32.4,-000.1,0004.84,0007.92,0004.59
2023-08-27 21:07:00,SystemResetWarning,0834.1,4.98,000.00,032.0,025.4,000.0,038.8,030.5,31.3,-000.4,0004.87,0008.37,0004.60
2023-08-27 21:08:00,SystemResetWarning,0834.0,5.01,000.00,031.9,024.4,000.0,038.8,030.3,31.1,-000.4,0004.91,0008.41,0004.66
2023-08-27 21:09:00,SystemResetWarning,0834.1,5.02,000.00,031.8,024.3,000.0,038.8,030.2,30.9,-000.5,0005.00,0008.52,0004.75
2023-08-27 21:10:00,SystemResetWarning,0834.0,4.99,000.00,031.6,024.6,000.0,038.9,030.1,31.3,-000.8,0005.11,0008.65,0004.85
2023-08-27 21:11:00,SystemResetWarning,0834.0,5.00,000.00,031.5,025.0,000.0,038.9,030.2,32.3,-000.5,0005.22,0008.72,0004.96
2023-08-27 21:12:00,SystemResetWarning,0834.1,5.01,000.00,031.4,025.5,000.0,039.0,030.3,31.5,-000.3,0005.34,0008.51,0005.08
2023-08-27 21:13:00,SystemResetWarning,0834.1,5.00,000.00,031.3,025.9,000.0,039.0,030.4,31.0,-000.4,0005.43,0008.66,0005.17
2023-08-27 21:14:00,SystemResetWarning,0834.1,4.99,000.00,031.3,026.2,000.0,039.0,030.5,31.2,-000.0,0005.54,0008.82,0005.26
2023-08-27 21:15:00,SystemResetWarning,0834.1,5.00,000.00,031.3,026.5,000.0,039.0,030.6,31.8,0000.1,0005.65,0008.98,0005.34
2023-08-27 21:16:00,SystemResetWarning,0834.1,4.99,000.00,031.2,026.2,000.0,039.0,030.5,31.6,-000.4,0005.76,0009.20,0005.44
2023-08-27 21:17:00,SystemResetWarning,0834.1,5.00,000.00,031.2,024.9,000.0,038.8,030.2,32.6,-000.4,0005.85,0009.33,0005.53
2023-08-27 21:18:00,SystemResetWarning,0834.1,5.01,000.00,031.1,024.3,000.0,038.7,030.1,32.9,-000.0,0005.95,0009.12,0005.63
2023-08-27 21:19:00,SystemResetWarning,0834.1,5.00,000.00,030.9,024.5,000.0,038.7,030.1,32.6,0000.4,0006.03,0009.07,0005.70
2023-08-27 21:20:00,SystemResetWarning,0834.2,5.00,000.00,030.7,024.8,000.0,038.7,030.1,32.7,0000.6,0006.09,0009.09,0005.75
2023-08-27 21:21:00,SystemResetWarning,0834.2,5.00,000.00,030.6,025.3,000.0,038.7,030.2,32.5,0001.2,0006.13,0009.09,0005.81
2023-08-27 21:22:00,SystemResetWarning,0834.3,5.00,000.00,030.6,025.7,000.0,038.7,030.3,33.1,0001.0,0006.15,0009.28,0005.83
2023-08-27 21:23:00,SystemResetWarning,0834.4,5.00,000.00,030.5,026.1,000.0,038.6,030.4,33.8,0001.1,0006.16,0009.42,0005.84
2023-08-27 21:24:00,SystemResetWarning,0834.4,5.00,000.00,030.5,026.3,000.0,038.6,030.4,33.8,0001.5,0006.21,0009.50,0005.87
2023-08-27 21:25:00,SystemResetWarning,0834.5,4.98,000.00,030.5,025.5,000.0,038.4,030.3,34.4,0001.4,0006.24,0009.61,0005.89
2023-08-27 21:26:00,SystemResetWarning,0834.4,5.01,000.00,030.4,024.5,000.0,038.3,030.1,34.5,0000.8,0006.24,0009.86,0005.90
2023-08-27 21:27:00,SystemResetWarning,0834.4,5.01,000.00,030.3,024.4,000.0,038.2,030.0,34.7,0000.9,0006.25,0010.21,0005.91
2023-08-27 21:28:00,SystemResetWarning,0834.4,4.98,000.00,030.1,024.6,000.0,038.2,029.8,34.9,0001.4,0006.26,0010.34,0005.93
2023-08-27 21:29:00,SystemResetWarning,0834.5,5.03,000.00,030.1,025.0,000.0,038.2,030.0,35.0,0001.2,0006.30,0010.75,0005.93
2023-08-27 21:30:00,SystemResetWarning,0834.5,4.97,000.00,030.2,025.5,000.0,038.2,030.2,34.5,0000.9,0006.32,0010.81,0005.96
2023-08-27 21:31:00,SystemResetWarning,0835.0,5.02,000.00,030.2,025.9,000.0,038.2,030.3,34.7,0000.9,0006.35,0010.81,0005.98
2023-08-27 21:32:00,SystemResetWarning,0834.7,5.01,000.00,030.2,026.3,000.0,038.2,030.4,34.5,0001.0,0006.40,0011.31,0006.01
2023-08-27 21:33:00,SystemResetWarning,0834.7,4.97,000.00,030.3,026.5,000.0,038.2,030.4,35.4,0000.9,0006.47,0011.85,0006.05
2023-08-27 21:34:00,SystemResetWarning,0834.8,5.03,000.00,030.4,025.7,000.0,038.1,030.3,36.1,0000.8,0006.55,0011.85,0006.12
2023-08-27 21:35:00,SystemResetWarning,0834.9,4.99,000.00,030.7,024.5,000.0,038.0,030.3,35.8,0000.2,0006.57,0012.12,0006.17
2023-08-27 21:36:00,SystemResetWarning,0834.8,4.99,000.00,030.9,024.3,000.0,037.9,030.3,35.1,0000.2,0006.61,0012.15,0006.21
2023-08-27 21:37:00,SystemResetWarning,0834.9,5.00,000.00,031.2,024.5,000.0,038.0,030.3,35.2,0001.1,0006.62,0011.81,0006.25
2023-08-27 21:38:00,SystemResetWarning,0835.1,5.03,000.00,031.5,024.9,000.0,038.1,030.5,34.8,0001.2,0006.62,0011.55,0006.28
2023-08-27 21:39:00,SystemResetWarning,0835.0,4.97,000.00,031.7,025.4,000.0,038.2,030.6,34.7,0001.0,0006.62,0011.30,0006.27
2023-08-27 21:40:00,SystemResetWarning,0835.0,5.02,000.00,031.8,025.8,000.0,038.4,030.6,34.7,0001.1,0006.61,0011.37,0006.27
2023-08-27 21:41:00,SystemResetWarning,0835.0,4.99,000.00,031.9,026.2,000.0,038.5,030.7,35.0,0001.1,0006.58,0011.55,0006.26
2023-08-27 21:42:00,SystemResetWarning,0834.9,5.03,000.00,032.0,026.5,000.0,038.7,030.8,34.8,0001.0,0006.55,0011.50,0006.25
2023-08-27 21:43:00,SystemResetWarning,0834.8,4.96,000.00,032.2,025.7,000.0,038.7,030.8,33.5,0000.5,0006.50,0011.80,0006.22
2023-08-27 21:44:00,SystemResetWarning,0834.9,5.03,000.00,032.3,024.4,000.0,038.7,030.5,32.7,0000.2,0006.46,0010.97,0006.20
2023-08-27 21:45:00,SystemResetWarning,0835.0,4.99,000.00,032.3,024.2,000.0,038.7,030.4,32.7,-000.1,0006.39,0010.82,0006.16
2023-08-27 21:46:00,SystemResetWarning,0835.0,4.99,000.00,032.1,024.4,000.0,038.8,030.2,33.0,0000.5,0006.34,0010.36,0006.11
2023-08-27 21:47:00,SystemResetWarning,0834.9,5.00,000.00,031.9,024.8,000.0,038.9,030.3,33.3,0000.6,0006.32,0010.27,0006.07
2023-08-27 21:48:00,SystemResetWarning,0835.0,5.01,000.00,031.8,025.3,000.0,039.0,030.4,32.4,0000.4,0006.29,0010.25,0006.03
2023-08-27 21:49:00,SystemResetWarning,0835.0,5.02,000.00,031.8,025.7,000.0,039.1,030.5,32.2,0000.5,0006.31,0010.28,0006.04
2023-08-27 21:50:00,SystemResetWarning,0835.0,4.99,000.00,031.7,026.1,000.0,039.2,030.6,32.0,0000.7,0006.31,0010.09,0006.04
2023-08-27 21:51:00,SystemResetWarning,0835.0,4.99,000.00,031.7,026.1,000.0,039.1,030.6,31.1,0000.7,0006.31,0010.09,0006.05
2023-08-27 21:52:00,SystemResetWarning,0834.9,4.99,000.00,031.7,024.8,000.0,039.0,030.4,30.7,0000.4,0006.38,0010.70,0006.08
2023-08-27 21:53:00,SystemResetWarning,0835.0,5.00,000.00,031.6,024.0,000.0,038.9,030.2,30.6,0000.8,0006.42,0010.89,0006.09
2023-08-27 21:54:00,SystemResetWarning,0834.9,5.01,000.00,031.4,024.1,000.0,038.8,030.1,30.5,0001.1,0006.44,0010.64,0006.10
2023-08-27 21:55:00,SystemResetWarning,0834.9,5.01,000.00,031.2,024.4,000.0,038.9,030.0,30.6,0001.1,0006.45,0010.53,0006.11
2023-08-27 21:56:00,SystemResetWarning,0835.0,4.99,000.00,031.1,024.9,000.0,038.9,030.1,30.2,0001.6,0006.47,0010.60,0006.13
2023-08-27 21:57:00,SystemResetWarning,0834.8,5.00,000.00,031.0,025.4,000.0,038.9,030.2,30.1,0001.3,0006.53,0010.73,0006.17
2023-08-27 21:58:00,SystemResetWarning,0834.9,5.00,000.00,030.9,025.8,000.0,038.9,030.3,29.4,0001.2,0006.58,0010.84,0006.21
2023-08-27 21:59:00,SystemResetWarning,0835.0,5.00,000.00,030.8,026.2,000.0,038.9,030.4,29.8,0001.4,0006.65,0010.89,0006.26
